User: anonymous   Login
Location: Caltech
(34.1382°N, 118.1253°W)
Time: 06:56:44
(UTC-07:00)
Language:

Cosmos 1408 Rocket - Orbit

View from above orbital plane
View from above orbital plane
View from above satellite
View from above satellite

Ground track
Ground track

The orbit data is extracted from the following two-line orbital elements,

1 13553U 82092B   15241.30141515  .00000235  00000-0  25193-4 0  9995
2 13553 082.5697 126.9597 0022917 060.6560 071.4294 14.83938680779469
Epoch (UTC): 29 August 2015 07:14:02
Eccentricity: 0.0022917
inclination: 82.5697°
perigee height: 601 km
apogee height: 633 km
right ascension of ascending node: 126.9597°
argument of perigee: 60.6560°
revolutions per day: 14.83938680
mean anomaly at epoch: 71.4294°
orbit number at epoch: 77946

The dashed part of the orbit path shows where the satellite is in the earth's shadow,  

DLR